This demonstration page uses our WeatherBlox Daily Observations layout. Learn more.

Left ArrowRight Arrow

38.88101, -77.10428

Hourly Observations for August 28, 2020

Temp ( °F °C ) Dew Point ( °F °C ) Humidity (%) Winds ( mph kmh ) Pressure ( in mb ) Visibility ( mi km ) Precip ( " mm )
12:52 am 00:52 Cloudy 82 27.8 64 17.8 55 55 NNW 8 13 29.89 1012 10 16.0934 0 0
1:52 am 01:52 Cloudy 80 26.7 65 18.3 60 60 NNW 5 7 29.88 1012 10 16.0934 0 0
2:52 am 02:52 Cloudy 80 26.7 64 17.8 58 58 Calm 29.88 1012 10 16.0934 0 0
3:52 am 03:52 Cloudy 78 25.6 66 18.9 67 67 NNW 3 6 29.88 1012 10 16.0934 0 0
4:52 am 04:52 Mostly Cloudy 78 25.6 66 18.9 67 67 Calm 29.88 1012 10 16.0934 0 0
5:52 am 05:52 Partly Cloudy 76 24.4 68 20 77 77 SW 7 11 29.89 1012 10 16.0934 0 0
6:52 am 06:52 Mostly Cloudy 75 23.9 69 20.6 82 82 SSW 7 11 29.89 1012 10 16.0934 0 0
7:52 am 07:52 Mostly Cloudy 78 25.6 70 21.1 76 76 S 8 13 29.9 1012 10 16.0934 0 0
8:52 am 08:52 Mostly Cloudy 81 27.2 72 22.2 74 74 S 10 17 29.91 1013 10 16.0934 0 0
9:52 am 09:52 Mostly Cloudy 86 30 71 21.7 61 61 W 8 13 29.91 1013 10 16.0934 0 0
10:52 am 10:52 Mostly Cloudy 89 31.7 71 21.7 55 55 WNW 13 20 29.91 1013 10 16.0934 0 0
11:52 am 11:52 Mostly Cloudy 91 32.8 71 21.7 52 52 W 13 20 29.9 1013 10 16.0934 0 0
12:52 pm 12:52 Mostly Cloudy 89 31.7 72 22.2 57 57 WSW 13 20 29.89 1012 10 16.0934 0 0
1:52 pm 13:52 Mostly Cloudy 92 33.3 72 22.2 52 52 W 9 15 29.89 1012 10 16.0934 0 0
2:52 pm 14:52 Mostly Cloudy 92 33.3 71 21.7 51 51 VRB 6 9 29.85 1011 10 16.0934 0 0
3:52 pm 15:52 Mostly Cloudy 93 33.9 71 21.7 49 49 WSW 6 9 29.83 1010 10 16.0934 0 0
4:52 pm 16:52 Mostly Cloudy 90 32.2 75 23.9 62 62 S 9 15 29.82 1010 10 16.0934 0 0
5:52 pm 17:52 Mostly Cloudy with Nearby Thunderstorms 82 27.8 68 20 63 63 N 15 24 29.83 1010 10 16.0934 0 0
6:03 pm 18:03 Cloudy with Thunderstorms 82 27.8 69 20.6 65 65 N 15 24 29.84 1010 10 16.0934 0 0
6:14 pm 18:14 Cloudy with Thunderstorms 78 25.6 71 21.7 79 79 NW 33 54 29.89 1012 1 1.60934 0.02 0.508
6:30 pm 18:30 Cloudy with Light Thunderstorms 75 23.9 73 22.8 94 94 ENE 10 17 29.85 1011 4 6.43736 0.57 14.478
6:43 pm 18:43 Cloudy with Light Rain 75 23.9 73 22.8 94 94 Calm 29.86 1011 10 16.0934 0.57 14.478
6:46 pm 18:46 Cloudy with Light Thunderstorms 75 24 73 23 94 94 SE 6 9 29.88 1012 10 16.0934 0.57 14.478
6:52 pm 18:52 Cloudy with Light Thunderstorms 76 24.4 73 22.8 91 91 SE 12 19 29.91 1013 3 4.82802 0.57 14.478
6:59 pm 18:59 Cloudy with Thunderstorms 74 23.3 71 21.7 91 91 N 13 20 29.86 1011 1 1.60934 0.35 8.89
7:07 pm 19:07 Cloudy with Light Thunderstorms 74 23.3 70 21.1 88 88 NNE 8 13 29.87 1011 3 4.82802 0.43 10.922
7:38 pm 19:38 Cloudy with Nearby Thunderstorms 76 24.4 73 22.8 91 91 E 6 9 29.86 1011 10 16.0934 0.45 11.43
7:45 pm 19:45 Cloudy with Light Thunderstorms 76 24.4 73 22.8 91 91 ESE 3 6 29.87 1011 10 16.0934 0.45 11.43
7:52 pm 19:52 Cloudy with Light Thunderstorms 76 24.4 73 22.8 91 91 SE 3 6 29.86 1011 9 14.48406 0.46 11.684
8:12 pm 20:12 Cloudy with Light Rain 76 24.4 73 22.8 91 91 S 5 7 29.86 1011 10 16.0934 0.02 0.508
8:52 pm 20:52 Cloudy with Light Rain 76 24.4 73 22.8 91 91 NE 5 7 29.85 1011 10 16.0934 0.02 0.508
9:09 pm 21:09 Cloudy with Nearby Thunderstorms 76 24.4 73 22.8 91 91 NNE 6 9 29.86 1011 10 16.0934 0.01 0.254
9:19 pm 21:19 Cloudy with Light Thunderstorms 76 24.4 73 22.8 91 91 E 3 6 29.86 1011 10 16.0934 0.02 0.508
9:52 pm 21:52 Cloudy with Light Thunderstorms 76 24.4 73 22.8 91 91 NNE 3 6 29.87 1012 9 14.48406 0.09 2.286
10:42 pm 22:42 Cloudy with Light Thunderstorms 76 24.4 74 23.3 94 94 S 8 13 29.85 1011 7 11.26538 0.11 2.794
10:52 pm 22:52 Cloudy with Light Thunderstorms 76 24.4 73 22.8 91 91 SSE 12 19 29.84 1011 9 14.48406 0.11 2.794
11:27 pm 23:27 Cloudy with Light Rain 74 23.3 72 22.2 94 94 SE 8 13 29.83 1010 10 16.0934 0.07 1.778
11:52 pm 23:52 Cloudy with Light Rain 74 23.3 72 22.2 94 94 S 13 20 29.85 1011 10 16.0934 0.08 2.032

Powered by AerisWeather